Vorticity
7 9 9 8 6 7 6 6 7 7 6 8 8 8 7 7 7 7 6 6 5 5 5 4 4 6 3 2 14 -1 8 8 9 5 9 8 8 7 0 8 1 16 -1 4 5 9 7
6 5 7 8 9 8 7 7 7 7 7 7 6 6 7 7 6 6 5 5 5 5 5 4 4 6 0 6 17 1 6 8 9 6 7 8 8 6 12 3 14 -1 5 12 9 15 10
4 5 6 6 6 7 9 8 7 7 6 6 6 7 7 6 7 6 5 5 5 4 4 4 4 7 11 6 6 1 5 8 7 10 5 8 7 8 6 13 -8 12 14 13 15 10 -0
4 4 4 5 6 6 7 6 7 9 7 6 5 6 6 6 6 6 6 5 5 5 5 4 8 0 6 7 12 1 5 4 11 9 7 7 7 7 10 6 15 18 30 16 -20 10 9
5 3 4 4 3 4 5 6 7 7 7 7 7 7 6 6 5 5 5 5 6 6 4 4 7 19 14 -6 15 2 4 9 8 6 8 8 8 8 10 14 24 9 -10 -4 17 -8 11
5 8 6 4 4 3 3 4 5 6 7 7 7 8 8 7 6 5 6 7 7 5 4 7 20 2 -4 8 12 1 5 7 6 7 6 9 7 11 17 17 -14 -16 6 4 11 -7 -6
7 6 5 6 5 4 3 3 3 4 5 6 6 7 7 8 7 6 7 8 8 7 5 8 2 9 6 17 3 0 8 5 8 8 12 3 4 21 5 1 -1 11 9 3 15 18 20
7 9 9 10 13 8 5 4 3 3 3 4 5 6 7 7 8 8 8 5 6 3 10 8 6 7 17 18 -1 6 2 8 9 9 8 7 36 -2 -1 5 15 15 4 5 14 -8 1
6 5 6 7 8 12 15 8 7 5 3 3 4 4 5 5 6 6 6 5 5 7 7 17 7 13 25 1 -5 13 5 7 8 8 5 10 17 2 -3 9 15 8 9 10 7 10 0
7 8 6 6 7 6 6 6 11 10 8 7 5 4 5 4 5 6 6 6 6 6 25 15 24 20 8 -0 18 -6 8 8 5 1 8 15 -6 14 4 14 11 9 28 -1 8 13 6
9 8 9 9 7 7 5 6 5 3 6 8 8 7 5 5 5 5 5 6 6 10 21 15 16 9 -2 -1 -4 5 10 7 6 7 6 -13 6 2 11 12 10 -10 15 3 9 13 31
10 10 10 10 10 9 7 6 5 5 3 1 7 8 7 8 7 7 8 8 8 32 13 4 0 -0 14 -9 5 -1 14 8 10 9 15 12 11 24 5 -8 25 9 12 -2 49 33 19
11 12 11 10 11 11 9 9 7 6 7 7 9 11 14 11 6 7 8 10 21 7 14 20 12 12 1 -3 4 18 4 3 14 17 1 -4 27 10 18 8 8 4 1 19 18 0 -14
13 12 12 10 10 11 11 11 11 10 8 12 0 5 8 10 13 8 8 13 10 6 13 -12 -0 -5 -2 -2 16 7 -1 15 16 21 7 15 18 12 -31 22 -3 3 22 -11 17 -3 -27
5 16 10 9 7 10 11 11 11 12 11 9 5 -15 -2 20 11 12 10 20 -12 22 26 9 5 8 18 36 -1 12 16 25 4 2 7 11 11 -7 12 8 11 -3 5 -2 12 38 45
10 11 7 13 9 10 12 13 13 14 13 12 8 3 14 7 -2 11 13 -12 3 20 6 -7 -4 -6 3 14 7 17 10 -1 15 3 12 6 16 31 -9 22 33 10 -4 18 7 9 20
18 20 17 14 9 12 13 14 15 14 20 15 16 7 5 6 6 -1 3 2 12 7 6 -7 11 -2 -1 -2 3 3 -6 -10 23 12 7 7 21 -34 6 -0 -7 12 -0 1 13 6 2
21 15 17 16 15 16 16 16 12 14 32 25 16 14 11 9 13 10 2 3 -1 4 15 11 8 -8 -29 -7 16 9 -6 6 -10 7 11 12 7 6 -4 27 14 17 15 5 17 -15 -22
15 21 26 26 19 18 22 21 19 16 10 17 21 11 13 -3 17 19 4 7 2 9 5 19 12 17 10 6 4 34 16 -1 8 11 3 2 5 18 8 9 13 1 -12 -5 3 25 -6
8 3 8 10 24 17 23 16 18 20 6 5 12 14 39 21 -15 15 9 21 5 6 10 9 -5 3 6 12 7 -19 -7 1 -12 -9 2 17 18 -2 -34 -31 -13 4 10 15 17 12 4
11 4 -2 -3 5 21 13 6 11 13 17 7 7 6 5 -13 64 -14 -7 13 10 13 18 24 18 24 8 8 6 16 11 22 13 29 11 21 4 11 6 5 17 19 13 18 16 12 9
18 3 -3 9 -11 3 6 21 9 5 13 7 5 8 6 16 24 -5 19 11 -6 10 -2 -4 12 -2 8 15 8 -19 0 10 12 9 16 13 -1 -7 6 36 17 -8 32 24 15 19 17
12 9 10 3 3 1 9 12 15 15 12 8 7 7 5 13 -4 27 15 18 -3 31 22 10 8 -3 6 4 10 8 6 -2 -17 -9 14 21 17 2 18 -3 16 53 14 6 6 28 7
13 17 14 5 10 10 4 8 9 7 13 10 12 10 22 16 15 6 -2 11 12 16 0 -10 -19 8 18 8 7 13 25 15 9 1 5 -13 15 16 -3 45 20 -7 12 3 14 23 11
7 10 18 16 12 13 15 8 9 8 8 13 13 1 -19 -16 -14 6 8 8 20 9 6 9 23 10 -31 -4 22 14 16 37 17 13 12 8 4 -6 -1 4 -13 55 -4 -2 11 17 22
7 7 3 7 17 15 17 18 13 10 3 5 7 2 11 19 21 7 6 -13 4 -2 23 -19 28 9 25 -5 43 10 -13 -4 23 19 43 32 23 -15 13 8 5 2 -11 -5 28 35 -25
8 6 5 6 2 7 12 20 22 19 14 14 14 16 13 2 14 30 4 -7 -3 21 13 6 27 20 24 -19 17 5 10 14 -9 4 25 11 19 -1 4 -3 14 13 4 16 13 -11 8
7 7 1 2 9 3 2 4 12 14 16 20 14 13 12 -4 14 21 16 -1 6 8 10 18 64 49 19 27 15 14 16 -0 10 9 7 4 4 11 17 1 19 -1 6 19 4 27 9
4 13 11 8 4 7 6 3 2 8 8 13 11 15 15 0 13 11 13 21 4 6 6 15 3 -4 7 37 17 38 -36 29 6 -6 23 9 -26 -1 -15 14 -4 -3 10 3 9 8 14
Height
3160 3159 3158 3157 3157 3157 3156 3155 3155 3155 3155 3155 3155 3154 3153 3153 3152 3151 3150 3149 3148 3148 3146 3145 3143 3141 3139 3137 3135 3133 3130 3128 3126 3123 3120 3117 3115 3113 3112 3110 3107 3104 3103 3101 3098 3096 3091
3159 3158 3157 3156 3156 3155 3155 3155 3154 3153 3153 3153 3152 3152 3151 3152 3151 3150 3149 3148 3147 3147 3145 3144 3142 3140 3138 3136 3133 3132 3129 3127 3124 3121 3118 3116 3114 3112 3109 3107 3104 3101 3098 3096 3093 3091 3086
3157 3157 3156 3155 3154 3153 3153 3153 3153 3152 3151 3151 3151 3150 3150 3150 3150 3149 3148 3148 3146 3145 3144 3142 3140 3138 3136 3135 3131 3129 3127 3124 3122 3119 3116 3114 3112 3110 3107 3104 3100 3097 3092 3091 3088 3085 3081
3154 3154 3154 3153 3152 3151 3151 3151 3150 3150 3150 3150 3149 3148 3148 3148 3148 3148 3147 3146 3145 3143 3142 3140 3138 3136 3134 3132 3130 3127 3125 3123 3120 3117 3114 3112 3109 3107 3105 3102 3097 3094 3090 3088 3088 3082 3080
3151 3151 3151 3151 3150 3149 3148 3148 3148 3148 3148 3148 3148 3147 3146 3146 3145 3145 3144 3143 3142 3141 3139 3138 3136 3134 3132 3130 3128 3126 3123 3120 3117 3114 3112 3109 3106 3104 3101 3097 3095 3093 3091 3088 3084 3079 3076
3147 3147 3146 3146 3147 3146 3146 3146 3145 3145 3145 3145 3145 3145 3144 3143 3143 3142 3142 3141 3139 3138 3137 3135 3133 3134 3130 3129 3126 3124 3121 3118 3115 3112 3110 3107 3104 3101 3098 3097 3097 3093 3088 3084 3080 3078 3071
3141 3141 3141 3142 3141 3142 3142 3142 3142 3142 3142 3143 3142 3142 3141 3141 3140 3140 3140 3139 3140 3138 3135 3133 3131 3129 3126 3125 3123 3122 3119 3117 3114 3111 3109 3105 3103 3100 3099 3096 3093 3089 3084 3077 3073 3070 3064
3134 3135 3136 3135 3135 3136 3136 3137 3138 3138 3139 3139 3139 3139 3139 3138 3138 3137 3136 3136 3135 3134 3130 3129 3127 3124 3122 3121 3121 3119 3117 3115 3111 3109 3106 3103 3099 3099 3096 3092 3087 3084 3079 3072 3068 3067 3063
3129 3129 3128 3130 3129 3130 3130 3131 3132 3133 3134 3135 3136 3136 3135 3135 3135 3134 3133 3133 3132 3130 3127 3124 3121 3119 3119 3120 3118 3116 3115 3112 3109 3106 3104 3100 3099 3096 3092 3089 3083 3080 3076 3071 3067 3059 3056
3121 3122 3122 3123 3124 3124 3125 3124 3126 3126 3128 3130 3130 3131 3130 3131 3133 3131 3131 3131 3129 3127 3123 3120 3117 3116 3117 3116 3116 3114 3112 3112 3107 3104 3101 3097 3094 3093 3089 3085 3082 3073 3073 3069 3063 3058 3050
3113 3113 3114 3115 3116 3117 3118 3119 3118 3120 3121 3123 3125 3126 3125 3126 3127 3128 3128 3127 3127 3127 3123 3117 3114 3114 3114 3116 3114 3112 3110 3106 3105 3102 3100 3098 3091 3088 3085 3082 3078 3072 3068 3064 3057 3052 3048
3106 3105 3105 3107 3108 3109 3110 3111 3113 3114 3114 3116 3117 3119 3120 3121 3122 3124 3124 3124 3126 3127 3116 3112 3110 3110 3112 3111 3110 3107 3106 3105 3102 3098 3095 3092 3089 3085 3082 3079 3076 3069 3063 3059 3050 3047 3045
3096 3097 3097 3098 3100 3100 3102 3104 3105 3106 3107 3109 3110 3112 3114 3115 3118 3119 3120 3122 3124 3118 3113 3108 3107 3108 3108 3108 3106 3104 3103 3101 3101 3096 3092 3089 3085 3082 3079 3076 3075 3070 3067 3056 3045 3040 3031
3087 3086 3089 3088 3089 3092 3093 3095 3097 3098 3100 3102 3104 3107 3106 3109 3111 3114 3115 3119 3115 3107 3107 3105 3107 3106 3105 3105 3103 3102 3100 3098 3095 3095 3091 3088 3082 3081 3077 3075 3072 3068 3068 3065 3050 3039 3024
3077 3080 3078 3081 3080 3082 3084 3086 3088 3090 3091 3094 3096 3097 3100 3105 3106 3108 3111 3108 3103 3105 3104 3103 3104 3104 3102 3101 3102 3099 3096 3096 3094 3093 3093 3089 3081 3078 3076 3071 3069 3066 3064 3062 3053 3040 3028
3069 3070 3070 3072 3069 3072 3075 3077 3078 3080 3082 3085 3087 3089 3094 3098 3101 3102 3102 3094 3098 3098 3102 3103 3102 3101 3102 3100 3100 3097 3094 3092 3091 3090 3088 3088 3079 3074 3071 3067 3065 3064 3063 3059 3054 3040 3025
3060 3061 3061 3061 3061 3063 3065 3068 3069 3070 3073 3077 3080 3082 3081 3090 3094 3094 3086 3087 3092 3092 3097 3100 3098 3099 3097 3099 3096 3096 3092 3090 3088 3087 3085 3084 3082 3074 3071 3066 3064 3063 3059 3055 3051 3047 3034
3052 3052 3052 3052 3053 3055 3058 3060 3061 3063 3066 3068 3071 3073 3075 3080 3087 3080 3077 3083 3086 3085 3090 3093 3093 3092 3094 3096 3092 3092 3089 3087 3085 3084 3082 3081 3077 3070 3065 3060 3058 3056 3055 3055 3052 3042 3038
3047 3046 3047 3047 3048 3050 3051 3052 3055 3058 3061 3064 3063 3065 3067 3073 3072 3071 3074 3078 3078 3078 3083 3085 3086 3087 3088 3089 3091 3086 3083 3083 3082 3081 3080 3078 3074 3069 3059 3058 3054 3052 3052 3051 3048 3042 3031
3043 3044 3044 3044 3043 3044 3045 3047 3050 3052 3057 3059 3060 3059 3059 3061 3063 3065 3069 3070 3071 3071 3075 3078 3078 3082 3082 3082 3084 3081 3079 3078 3077 3077 3075 3074 3069 3068 3062 3055 3054 3046 3043 3044 3042 3036 3024
3039 3040 3041 3042 3042 3041 3042 3044 3046 3048 3051 3054 3053 3051 3052 3052 3052 3058 3062 3062 3065 3065 3069 3071 3070 3073 3077 3077 3078 3076 3076 3075 3071 3071 3070 3070 3062 3061 3055 3051 3046 3040 3037 3034 3034 3027 3024
3034 3036 3037 3037 3038 3038 3039 3039 3042 3043 3045 3047 3049 3048 3050 3049 3051 3054 3053 3051 3055 3062 3064 3064 3065 3071 3070 3067 3073 3075 3073 3072 3069 3065 3065 3063 3058 3055 3046 3044 3040 3034 3031 3029 3025 3021 3017
3029 3030 3031 3032 3033 3034 3035 3037 3038 3038 3041 3041 3043 3043 3043 3042 3045 3046 3044 3045 3047 3053 3054 3055 3060 3061 3060 3064 3068 3068 3069 3066 3065 3061 3060 3059 3056 3054 3043 3040 3035 3029 3027 3025 3021 3017 3014
3023 3024 3025 3026 3027 3028 3030 3032 3033 3034 3034 3035 3036 3038 3037 3032 3036 3036 3038 3041 3042 3044 3045 3049 3053 3053 3056 3057 3056 3056 3056 3055 3055 3054 3055 3054 3053 3053 3042 3038 3033 3027 3025 3022 3017 3012 3010
3018 3019 3020 3020 3021 3021 3022 3024 3026 3028 3028 3029 3030 3031 3029 3022 3026 3026 3031 3031 3033 3035 3034 3039 3040 3047 3050 3052 3051 3051 3050 3047 3043 3045 3044 3046 3049 3049 3045 3039 3029 3022 3022 3020 3015 3010 3006
3012 3013 3015 3015 3014 3014 3014 3015 3017 3020 3021 3021 3022 3022 3021 3017 3011 3021 3021 3022 3022 3022 3024 3022 3030 3037 3041 3042 3044 3039 3040 3041 3037 3033 3032 3036 3041 3045 3042 3039 3029 3023 3020 3017 3012 3008 3006
3006 3008 3009 3009 3009 3009 3008 3009 3009 3011 3012 3012 3013 3013 3012 3007 3004 3008 3006 3008 3015 3013 3011 3015 3019 3022 3027 3029 3033 3032 3032 3033 3031 3026 3027 3030 3034 3034 3037 3035 3024 3020 3018 3015 3014 3013 3005
3000 3001 3002 3003 3003 3003 3003 3003 3003 3004 3003 3003 3003 3003 3002 2997 2990 2993 2996 2997 3002 3001 3003 3007 3011 3007 3015 3017 3022 3023 3022 3023 3024 3021 3019 3022 3024 3026 3030 3030 3022 3017 3016 3015 3012 3007 3003
2992 2992 2993 2995 2996 2996 2996 2997 2998 2998 2997 2996 2993 2993 2994 2987 2975 2980 2981 2984 2988 2992 2997 2999 2999 3002 3003 3005 3010 3014 3015 3015 3016 3015 3014 3018 3017 3016 3018 3015 3015 3014 3013 3012 3008 3005 3002